Content
SEND FEEDBACK

Daily
Averages
Monthly
Summary
United States of America

ST. LOUIS - GATEWAY ARCH, MISSOURI


Home > North America > United States > Missouri
Elevation: 450 feet     Latitude: 38 37N     Longitude: 090 11W

WEATHER
 
SELECT A DAY
Number of Records: 185,957;   Date Range: 1/1/95 - 7/20/14
 
SHARE

PRINT THIS DATA

[ ← Previous Day ]
WEATHER ALMANAC - APRIL 21, 2013
[ Next Day → ]
[ °C ]   °F
Weather ElementAverageHighLow
Temperature52.2 °F63 °F (3:53 pm)41 °F (4:53 am)
Dewpoint35.9 °F41 °F (3:53 pm)30.9 °F (2:53 am)
Humidity54.5 %67 % (4:53 am)44 % (2:53 pm)
Barometer30.34 in30.43 in (7:53 am)30.26 in (7:53 pm)
Wind Speed9.1 mph12.7 mph (10:53 am)
Weather ElementAverage
Visibility10 mi
Wind DirectionESE (122.7 °)

Weather ElementTotal
Precipitation---
Heating Degree Days13 (Base 65)
Growing Degree Days2 (Base 50)
Averaged from 22 records on April 21, 2013
WEATHER CONDITIONS BREAKOUT
WIND DIRECTION BREAKOUT
WEATHER BY HOUR - APRIL 21, 2013
[ °C ]   °F
Local TimeTemperatureDewpointHumidityBarometerVisibilityWind DirectionWind SpeedGust SpeedPrecipitationEventsConditions
1:53 AM44.1 °F33.1 °F65 %30.35 in10.0 miESE (120°)9.2 mphClear
2:53 AM43.0 °F30.9 °F62 %30.36 in10.0 miESE (120°)8.1 mphClear
3:53 AM42.1 °F30.9 °F65 %30.37 in10.0 miESE (120°)6.9 mphClear
4:53 AM41.0 °F30.9 °F67 %30.38 in10.0 miESE (110°)8.1 mphClear
5:53 AM41.0 °F30.9 °F67 %30.40 in10.0 miESE (110°)8.1 mphPartly Cloudy
6:53 AM41.0 °F30.9 °F67 %30.42 in10.0 miESE (110°)6.9 mphScattered Clouds
7:53 AM44.1 °F30.9 °F60 %30.43 in10.0 miESE (120°)9.2 mphClear
9:53 AM48.9 °F34.0 °F56 %30.43 in10.0 miESE (120°)10.4 mphClear
10:53 AM53.1 °F36.0 °F52 %30.42 in10.0 miESE (120°)12.7 mphClear
11:53 AM55.9 °F37.0 °F49 %30.40 in10.0 miSE (140°)9.2 mphMostly Cloudy
12:53 PM59.0 °F37.9 °F46 %30.37 in10.0 miSE (140°)9.2 mphOvercast
1:53 PM61.0 °F39.9 °F46 %30.35 in10.0 miSE (140°)9.2 mphClear
2:53 PM61.0 °F39.0 °F44 %30.32 in10.0 miSE (130°)10.4 mphClear
3:53 PM63.0 °F41.0 °F45 %30.29 in10.0 miESE (120°)10.4 mphScattered Clouds
4:53 PM62.1 °F39.9 °F44 %30.27 in10.0 miESE (120°)11.5 mphScattered Clouds
5:53 PM61.0 °F39.9 °F46 %30.27 in10.0 miESE (120°)11.5 mphClear
6:53 PM57.9 °F39.9 °F51 %30.27 in10.0 miESE (120°)9.2 mphClear
7:53 PM57.0 °F39.0 °F51 %30.26 in10.0 miESE (110°)10.4 mphClear
8:53 PM55.9 °F37.9 °F51 %30.28 in10.0 miESE (120°)8.1 mphClear
9:53 PM54.0 °F37.0 °F53 %30.29 in10.0 miSE (130°)8.1 mphClear
10:53 PM52.0 °F36.0 °F54 %30.30 in10.0 miSE (130°)6.9 mphClear
11:53 PM50.0 °F36.0 °F59 %30.28 in10.0 miSE (130°)5.8 mphClear
Hourly data recorded from KCPS, located miles away from St. Louis - Gateway Arch, Missouri







STORIES FROM OUR PARTNERS